Location: Atbuku
(36.4936°N, 30.4362°E)
Time: 18:10:08
(UTC+00:00)

Cosmos 1900 - Pass Details

Date: 11 December 2025
Orbit: 680 x 735 km, 66.1° (Epoch: 15 January)

Event Time Altitude Azimuth Distance (km) Brightness Sun altitude
Rises 15:40:23 0° 334° (NNW) 3,133 7.7 -11.3°
Reaches altitude 10° 15:42:47 10° 337° (NNW) 2,200 6.9 -11.8°
Maximum altitude 15:47:47 68° 60° (ENE) 762 4.3 -12.7°
Drops below altitude 10° 15:52:39 10° 144° (SE) 2,151 6.7 -13.6°
Sets 15:54:58 0° 147° (SSE) 3,056 7.5 -14.1°
